1491321600.0,17908,15.38,73934.5,0.35,-0.49,-0.41,0,*44
1491321601.18,17909,15.38,73936.0,0.35,-0.41,-0.49,0,*45
1491321602.37,17910,15.38,73942.0,0.35,-0.41,-0.41,0,*45
1491321603.56,17911,15.38,73942.0,0.35,-0.41,-0.41,0,*44
1491321604.76,17912,15.38,73942.0,0.37,-0.37,-0.37,0,*45
1491321605.96,17913,15.38,73942.5,0.37,-0.37,-0.37,0,*44
1491321607.16,17914,15.38,73946.0,0.37,-0.37,-0.37,0,*43
1491321608.35,17915,15.38,73938.0,0.37,-0.37,-0.37,0,*42
1491321609.55,17916,15.38,73938.8,0.37,-0.37,-0.37,0,*41
1491321610.76,17917,15.38,73938.5,0.37,-0.37,-0.37,0,*40
1491321611.95,17918,15.38,73940.5,0.37,-0.37,-0.37,0,*4F
1491321613.15,17919,15.38,73944.0,0.37,-0.37,-0.37,0,*4E
1491321614.33,17920,15.31,73946.8,0.39,-0.33,-0.33,0,*4A
1491321615.52,17921,15.38,73946.8,0.37,-0.37,-0.37,0,*45
1491321616.73,17922,15.38,73948.0,0.37,-0.37,-0.37,0,*46
1491321617.9,17923,15.38,73948.8,0.35,-0.37,-0.37,0,*45
1491321619.08,17924,15.38,73944.0,0.35,-0.37,-0.37,0,*42
1491321620.28,17925,15.38,73950.3,0.37,-0.33,-0.33,0,*41
1491321621.45,17926,15.38,73950.8,0.39,-0.33,-0.33,0,*4C
1491321622.65,17927,15.38,73948.8,0.37,-0.33,-0.33,0,*43
1491321623.82,17928,15.31,73936.5,0.39,-0.37,-0.37,0,*42
1491321625.03,17929,15.38,73942.0,0.37,-0.37,-0.41,0,*4C
1491321626.23,17930,15.38,73946.3,0.37,-0.37,-0.41,0,*44
1491321627.43,17931,15.38,73950.8,0.37,-0.37,-0.41,0,*45
1491321628.63,17932,15.38,73944.0,0.37,-0.49,-0.41,0,*4F
1491321629.83,17933,15.38,73940.8,0.37,-0.49,-0.49,0,*46
1491321631.02,17934,15.31,73944.0,0.37,-0.53,-0.53,0,*41
1491321632.23,17935,15.31,73942.8,0.37,-0.41,-0.41,0,*40
1491321633.44,17936,15.38,73940.5,0.37,-0.41,-0.41,0,*43
1491321634.63,17937,15.38,73950.0,0.37,-0.49,-0.49,0,*42
1491321635.82,17938,15.38,73954.3,0.37,-0.49,-0.53,0,*46
1491321637.0,17939,15.38,73962.3,0.39,-0.37,-0.37,0,*42
1491321638.18,17940,15.31,73962.0,0.39,-0.37,-0.37,0,*4C
1491321639.38,17941,15.38,73962.5,0.37,-0.37,-0.37,0,*43
1491321640.58,17942,15.38,73960.5,0.37,-0.41,-0.37,0,*41
1491321641.78,17943,15.31,73962.8,0.37,-0.49,-0.37,0,*48
1491321642.94,17944,15.31,73958.8,0.39,-0.33,-0.29,0,*43
1491321644.12,17945,15.38,73950.5,0.39,-0.37,-0.45,0,*4C
1491321645.29,17946,15.38,73932.8,0.39,-0.37,-0.37,0,*4A
1491321646.47,17947,15.38,73922.3,0.39,-0.37,-0.37,0,*4B
1491321647.68,17948,15.38,73950.0,0.37,-0.41,-0.41,0,*4A
1491321648.88,17949,15.31,73966.8,0.37,-0.41,-0.41,0,*4B
1491321650.08,17950,15.38,73974.3,0.37,-0.41,-0.49,0,*4B
1491321651.29,17951,15.31,73970.5,0.37,-0.41,-0.41,0,*42
1491321652.5,17952,15.31,73960.5,0.37,-0.41,-0.41,0,*41
1491321653.69,17953,15.31,73952.8,0.37,-0.65,-0.61,0,*44
1491321654.86,17954,15.38,73962.0,0.39,-0.57,-0.49,0,*46
1491321656.04,17955,15.38,73962.0,0.39,-0.45,-0.45,0,*48
1491321657.21,17956,15.38,73962.3,0.39,-0.49,-0.49,0,*4B
1491321658.41,17957,15.38,73962.8,0.37,-0.53,-0.49,0,*4F
1491321659.58,17958,15.38,73962.0,0.39,-0.37,-0.45,0,*40
1491321660.77,17959,15.38,73960.0,0.37,-0.61,-0.61,0,*4A
1491321661.96,17960,15.31,73956.0,0.37,-0.53,-0.61,0,*41
1491321663.14,17961,15.38,73956.0,0.39,-0.37,-0.37,0,*4F
1491321664.34,17962,15.31,73966.8,0.37,-0.49,-0.41,0,*4A
1491321665.54,17963,15.38,73970.0,0.37,-0.41,-0.41,0,*43
1491321666.73,17964,15.38,73968.0,0.37,-0.49,-0.53,0,*4F
1491321667.93,17965,15.38,73968.8,0.37,-0.53,-0.49,0,*4E
1491321669.14,17966,15.31,73964.5,0.37,-0.41,-0.41,0,*46
1491321670.35,17967,15.31,73960.8,0.37,-0.41,-0.41,0,*47
1491321671.52,17968,15.38,73964.0,0.39,-0.37,-0.33,0,*42
1491321672.72,17969,15.31,73960.8,0.37,-0.49,-0.49,0,*49
1491321673.92,17970,15.38,73960.8,0.37,-0.49,-0.41,0,*49
1491321675.09,17971,15.31,73956.3,0.39,-0.45,-0.37,0,*4B
1491321676.29,17972,15.38,73956.8,0.37,-0.49,-0.37,0,*4A
1491321677.49,17973,15.31,73964.8,0.37,-0.53,-0.49,0,*49
1491321678.67,17974,15.38,73968.5,0.39,-0.69,-0.49,0,*49
1491321679.89,17975,15.31,73970.5,0.37,-0.89,-0.65,0,*46
1491321681.11,17976,15.38,73964.0,0.39,-1.05,-0.93,0,*77
1491321682.33,17977,15.31,73962.3,0.39,-0.97,-0.85,0,*4B
1491321683.58,17978,15.38,73956.0,0.37,-0.97,-1.01,0,*77
1491321684.76,17979,15.31,73952.8,0.39,-0.73,-0.81,0,*4B
1491321685.92,17980,15.31,73946.8,0.39,-0.61,-0.61,0,*40
1491321687.09,17981,15.38,73946.5,0.39,-0.57,-0.61,0,*44
1491321688.26,17982,15.31,73946.0,0.39,-0.69,-0.69,0,*42
1491321689.48,17983,15.31,73946.0,0.39,-0.93,-0.97,0,*47
1491321690.69,17984,15.38,73940.0,0.39,-0.93,-0.85,0,*43
1491321691.89,17985,15.31,73940.0,0.37,-0.65,-0.65,0,*4B
1491321693.08,17986,15.31,73946.8,0.37,-0.53,-0.61,0,*49
1491321694.26,17987,15.31,73944.8,0.39,-0.57,-0.49,0,*48
1491321695.45,17988,15.31,73942.0,0.37,-0.53,-0.49,0,*4D
1491321696.63,17989,15.38,73940.8,0.39,-0.57,-0.49,0,*46
1491321697.8,17990,15.31,73948.0,0.39,-0.57,-0.57,0,*41
1491321698.98,17991,15.31,73948.8,0.39,-0.57,-0.49,0,*4F
1491321700.18,17992,15.31,73942.5,0.37,-0.53,-0.53,0,*4D
1491321701.38,17993,15.31,73938.5,0.37,-0.53,-0.49,0,*47
1491321702.56,17994,15.38,73930.8,0.37,-0.61,-0.61,0,*4B
1491321703.75,17995,15.31,73922.8,0.37,-0.61,-0.61,0,*4A
1491321704.94,17996,15.38,73932.8,0.37,-0.53,-0.53,0,*49
1491321706.12,17997,15.31,73934.3,0.39,-0.45,-0.49,0,*4A
1491321707.3,17998,15.31,73940.0,0.37,-0.61,-0.65,0,*43
1491321708.47,17999,15.31,73938.3,0.39,-0.61,-0.61,0,*48
1491321709.64,18000,15.31,73936.8,0.39,-0.49,-0.57,0,*41
1491321710.81,18001,15.38,73944.8,0.39,-0.57,-0.45,0,*4C
1491321711.98,18002,15.31,73942.5,0.39,-0.49,-0.45,0,*40
1491321713.15,18003,15.31,73942.3,0.39,-0.45,-0.57,0,*4E
1491321714.33,18004,15.31,73944.8,0.39,-0.57,-0.49,0,*45
1491321715.5,18005,15.31,73940.5,0.39,-0.61,-0.57,0,*4E
1491321716.66,18006,15.31,73942.8,0.39,-0.61,-0.61,0,*48
1491321717.85,18007,15.31,73950.5,0.37,-0.73,-0.61,0,*44
1491321719.05,18008,15.31,73950.5,0.37,-0.61,-0.49,0,*42
1491321720.24,18009,15.31,73950.5,0.37,-0.65,-0.61,0,*4D
1491321721.43,18010,15.31,73956.3,0.37,-0.61,-0.53,0,*40
1491321722.62,18011,15.31,73962.0,0.37,-0.65,-0.61,0,*44
1491321723.79,18012,15.38,73964.3,0.39,-0.69,-0.49,0,*4F
1491321724.99,18013,15.31,73962.0,0.39,-0.93,-0.69,0,*49
1491321726.23,18014,15.31,73962.0,0.37,-1.09,-0.97,0,*73
1491321727.46,18015,15.31,73960.5,0.37,-0.85,-0.77,0,*49
1491321728.64,18016,15.31,73958.3,0.39,-0.81,-0.73,0,*44
1491321729.81,18017,15.31,73956.8,0.39,-0.69,-0.57,0,*45
1491321731.0,18018,15.38,73956.5,0.37,-0.77,-0.61,0,*4E
1491321732.17,18019,15.31,73952.3,0.39,-0.77,-0.61,0,*41
1491321733.36,18020,15.31,73954.5,0.37,-0.61,-0.49,0,*48
1491321734.56,18021,15.31,73956.0,0.37,-0.53,-0.49,0,*48
1491321735.74,18022,15.31,73954.3,0.39,-0.57,-0.49,0,*41
1491321736.91,18023,15.31,73958.3,0.39,-0.61,-0.57,0,*4A
1491321738.1,18024,15.31,73954.5,0.37,-0.53,-0.53,0,*46
1491321739.28,18025,15.31,73958.3,0.39,-0.57,-0.49,0,*46
1491321740.45,18026,15.31,73956.8,0.39,-0.49,-0.53,0,*41
1491321741.62,18027,15.31,73958.0,0.39,-0.49,-0.37,0,*42
1491321742.81,18028,15.38,73962.5,0.37,-0.53,-0.61,0,*4B
1491321744.0,18029,15.31,73958.8,0.37,-0.61,-0.53,0,*4A
1491321745.18,18030,15.31,73950.0,0.39,-0.69,-0.57,0,*40
1491321746.38,18031,15.31,73944.8,0.39,-0.97,-0.81,0,*4B
1491321747.62,18032,15.31,73938.3,0.37,-0.89,-0.85,0,*4D
1491321748.82,18033,15.31,73942.3,0.39,-0.85,-0.81,0,*4A
1491321749.99,18034,15.31,73944.5,0.39,-0.73,-0.69,0,*42
1491321751.17,18035,15.31,73944.0,0.39,-0.81,-0.69,0,*4E
1491321752.34,18036,15.31,73942.3,0.39,-0.73,-0.61,0,*48
1491321753.56,18037,15.31,73934.0,0.39,-0.97,-0.85,0,*49
1491321754.81,18038,15.31,73942.0,0.37,-1.01,-0.97,0,*75
1491321756.03,18039,15.31,73946.8,0.39,-0.97,-0.97,0,*44
1491321757.28,18040,15.31,73940.8,0.37,-1.01,-0.97,0,*7A
1491321758.51,18041,15.31,73932.0,0.37,-1.13,-1.21,0,*44
1491321759.74,18042,15.31,73930.5,0.39,-1.09,-1.09,0,*48
1491321760.96,18043,15.31,73940.8,0.39,-0.93,-1.09,0,*7B
1491321762.21,18044,15.31,73940.0,0.37,-1.01,-1.09,0,*48
1491321763.46,18045,15.31,73926.0,0.37,-1.13,-1.13,0,*41
1491321764.71,18046,15.31,73936.0,0.37,-1.09,-1.01,0,*4A
1491321765.96,18047,15.31,73928.5,0.37,-1.09,-1.13,0,*48
1491321767.16,18048,15.31,73934.5,0.37,-1.25,-1.29,0,*40
1491321768.41,18049,15.31,73940.0,0.37,-1.13,-1.13,0,*4D
1491321769.66,18050,15.31,73940.0,0.37,-1.09,-1.09,0,*45
1491321770.87,18051,15.31,73942.5,0.35,-1.21,-1.09,0,*4C
1491321772.13,18052,15.31,73948.3,0.37,-1.13,-1.01,0,*44
1491321773.38,18053,15.31,73946.3,0.37,-1.09,-1.01,0,*4E
1491321774.63,18054,15.31,73940.3,0.37,-1.09,-1.01,0,*49
1491321775.88,18055,15.31,73954.5,0.37,-1.09,-1.01,0,*48
1491321777.11,18056,15.31,73946.3,0.35,-1.01,-1.01,0,*41
1491321778.33,18057,15.31,73946.5,0.35,-0.97,-0.89,0,*4F
1491321779.56,18058,15.31,73944.5,0.35,-1.01,-0.97,0,*71
1491321780.8,18059,15.31,73944.8,0.35,-1.01,-1.01,0,*4E
1491321782.02,18060,15.31,73940.0,0.35,-0.97,-0.97,0,*44
1491321783.24,18061,15.31,73936.0,0.35,-0.89,-0.85,0,*49
1491321784.46,18062,15.31,73932.0,0.35,-0.97,-0.85,0,*45
1491321785.7,18063,15.31,73938.0,0.35,-1.01,-1.01,0,*47
1491321786.93,18064,15.31,73940.0,0.35,-1.01,-1.09,0,*48
1491321788.19,18065,15.31,73948.0,0.33,-1.05,-1.05,0,*47
1491321789.42,18066,15.31,73950.5,0.35,-1.01,-0.97,0,*7C
1491321790.64,18067,15.31,73948.3,0.35,-0.97,-0.89,0,*4C
1491321791.89,18068,15.31,73948.5,0.33,-1.01,-0.93,0,*70
1491321793.11,18069,15.31,73944.8,0.35,-0.97,-0.97,0,*4D
1491321794.37,18070,15.31,73944.5,0.33,-1.05,-1.01,0,*47
1491321795.61,18071,15.31,73946.3,0.33,-0.93,-0.93,0,*42
1491321796.85,18072,15.31,73944.0,0.33,-0.93,-0.93,0,*41
1491321798.1,18073,15.31,73944.3,0.33,-1.05,-1.01,0,*44
1491321799.32,18074,15.31,73942.3,0.33,-0.93,-0.81,0,*44
1491321800.52,18075,15.31,73942.5,0.33,-0.77,-0.77,0,*46
1491321801.71,18076,15.31,73942.8,0.33,-0.65,-0.65,0,*45
1491321802.91,18077,15.31,73936.3,0.33,-0.77,-0.77,0,*44
1491321804.08,18078,15.31,73930.3,0.35,-0.77,-0.65,0,*4E
1491321805.29,18079,15.31,73938.5,0.35,-0.85,-0.77,0,*41
1491321806.53,18080,15.31,73940.3,0.33,-0.89,-0.89,0,*4C
1491321807.71,18081,15.31,73940.5,0.35,-0.73,-0.77,0,*4F
1491321808.93,18082,15.31,73942.5,0.33,-0.77,-0.89,0,*4F
1491321810.15,18083,15.31,73928.8,0.33,-0.89,-0.77,0,*4E
1491321811.35,18084,15.31,73928.8,0.33,-0.77,-0.77,0,*48
1491321812.57,18085,15.31,73930.5,0.33,-0.93,-0.81,0,*4A
1491321813.81,18086,15.31,73928.5,0.33,-0.93,-0.89,0,*41
1491321815.01,18087,15.31,73932.5,0.33,-0.77,-0.77,0,*4B
1491321816.2,18088,15.31,73936.0,0.33,-0.69,-0.65,0,*48
1491321817.39,18089,15.31,73938.3,0.33,-0.69,-0.65,0,*49
1491321818.59,18090,15.31,73940.3,0.33,-0.77,-0.77,0,*4D
1491321819.76,18091,15.31,73944.5,0.35,-0.65,-0.61,0,*4E
1491321820.96,18092,15.31,73944.0,0.33,-0.77,-0.69,0,*40
1491321822.16,18093,15.31,73954.5,0.33,-0.69,-0.69,0,*4E
1491321823.35,18094,15.31,73950.8,0.33,-0.77,-0.65,0,*4A
1491321824.52,18095,15.31,73948.3,0.35,-0.61,-0.53,0,*4F
1491321825.72,18096,15.31,73946.5,0.33,-0.81,-0.77,0,*42
1491321826.9,18097,15.31,73944.0,0.35,-0.77,-0.73,0,*48
1491321828.1,18098,15.31,73942.3,0.33,-0.69,-0.77,0,*4A
1491321829.27,18099,15.31,73944.8,0.35,-0.65,-0.65,0,*42
1491321830.45,18100,15.31,73940.5,0.35,-0.73,-0.61,0,*40
1491321831.64,18101,15.31,73942.5,0.33,-0.77,-0.65,0,*47
1491321832.84,18102,15.31,73938.3,0.33,-0.77,-0.77,0,*47
1491321834.01,18103,15.31,73940.3,0.35,-0.73,-0.65,0,*47
1491321835.21,18104,15.31,73932.8,0.33,-0.65,-0.65,0,*41
1491321836.4,18105,15.31,73932.8,0.33,-0.57,-0.61,0,*45
1491321837.6,18106,15.31,73932.3,0.33,-0.69,-0.77,0,*4C
1491321838.79,18107,15.31,73932.3,0.33,-0.65,-0.65,0,*42
1491321839.98,18108,15.31,73942.5,0.33,-0.65,-0.57,0,*4C
1491321841.18,18109,15.31,73944.8,0.33,-0.65,-0.57,0,*4D
1491321842.38,18110,15.31,73942.8,0.33,-0.69,-0.69,0,*44
1491321843.55,18111,15.31,73942.5,0.35,-0.53,-0.53,0,*43
1491321844.75,18112,15.31,73942.3,0.33,-0.45,-0.45,0,*46
1491321845.94,18113,15.31,73946.8,0.33,-0.45,-0.45,0,*47
1491321847.14,18114,15.31,73950.3,0.33,-0.45,-0.45,0,*40
1491321848.34,18115,15.31,73948.0,0.33,-0.45,-0.45,0,*41
1491321849.53,18116,15.31,73944.0,0.33,-0.45,-0.45,0,*42
1491321850.73,18117,15.31,73950.8,0.33,-0.45,-0.53,0,*44
1491321851.92,18118,15.31,73954.0,0.33,-0.45,-0.45,0,*4C
1491321853.12,18119,15.31,73950.3,0.33,-0.53,-0.45,0,*4A
1491321854.31,18120,15.31,73952.0,0.35,-0.41,-0.41,0,*41
1491321855.49,18121,15.31,73950.5,0.35,-0.49,-0.41,0,*48
1491321856.68,18122,15.31,73954.8,0.33,-0.45,-0.45,0,*45
1491321857.86,18123,15.31,73946.8,0.35,-0.49,-0.41,0,*4A
1491321859.06,18124,15.31,73948.3,0.33,-0.53,-0.53,0,*43
1491321860.23,18125,15.31,73954.8,0.35,-0.65,-0.53,0,*41
1491321861.43,18126,15.31,73962.5,0.35,-0.89,-0.61,0,*41
1491321862.65,18127,15.31,73948.8,0.35,-1.39,-1.21,0,*4F
1491321863.85,18128,15.31,73946.0,0.35,-1.25,-1.13,0,*4C
1491321865.06,18129,15.31,73944.0,0.35,-1.39,-1.25,0,*45
1491321866.27,18130,15.31,73942.8,0.35,-1.21,-1.13,0,*41
1491321867.5,18131,15.31,73936.3,0.35,-0.97,-1.01,0,*7F
1491321868.7,18132,15.31,73946.5,0.33,-1.29,-1.25,0,*48
1491321869.93,18133,15.31,73946.3,0.35,-1.01,-0.89,0,*72
1491321871.18,18134,15.31,73950.5,0.33,-1.01,-0.89,0,*73
1491321872.38,18135,15.31,73950.0,0.35,-0.97,-0.77,0,*4B
1491321873.61,18136,15.31,73950.5,0.35,-1.09,-0.85,0,*73
1491321874.84,18137,15.31,73946.5,0.35,-1.13,-1.01,0,*44
1491321876.05,18138,15.31,73944.3,0.35,-1.25,-1.01,0,*4E
1491321877.26,18139,15.31,73946.3,0.35,-1.35,-1.29,0,*44
1491321878.49,18140,15.31,73946.5,0.33,-1.43,-1.51,0,*42
1491321879.75,18141,15.31,73944.3,0.33,-1.39,-1.43,0,*4D
1491321880.98,18142,15.31,73950.8,0.35,-1.13,-1.13,0,*45
1491321882.18,18143,15.31,73946.8,0.33,-1.25,-1.25,0,*42
1491321883.39,18144,15.31,73946.3,0.35,-1.35,-1.29,0,*4E
1491321884.6,18145,15.31,73944.3,0.33,-1.33,-1.29,0,*4F
1491321885.8,18146,15.31,73940.5,0.33,-1.33,-1.33,0,*47
1491321887.01,18147,15.31,73942.8,0.33,-1.17,-1.17,0,*46
1491321888.22,18148,15.31,73942.3,0.33,-1.25,-1.25,0,*49
1491321889.45,18149,15.31,73940.3,0.35,-1.47,-1.39,0,*47
1491321890.68,18150,15.31,73942.0,0.33,-1.51,-1.39,0,*4E
1491321891.91,18151,15.31,73942.3,0.33,-1.51,-1.43,0,*42
1491321893.14,18152,15.31,73940.0,0.33,-1.39,-1.51,0,*4C
1491321894.38,18153,15.31,73938.8,0.33,-1.39,-1.51,0,*4D
1491321895.56,18154,15.31,73940.0,0.31,-1.29,-1.29,0,*46
1491321896.78,18155,15.31,73934.8,0.31,-1.33,-1.39,0,*4D
1491321897.99,18156,15.31,73934.3,0.31,-1.29,-1.43,0,*48
1491321899.17,18157,15.31,73934.0,0.31,-1.55,-1.63,0,*40
1491321900.35,18158,15.31,73936.0,0.31,-1.67,-1.67,0,*4A
1491321901.57,18159,15.31,73936.5,0.29,-1.71,-1.67,0,*45
1491321902.75,18160,15.31,73936.8,0.31,-1.51,-1.51,0,*41
1491321903.96,18161,15.31,73942.3,0.29,-1.29,-1.29,0,*49
1491321905.17,18162,15.31,73942.3,0.29,-1.21,-1.21,0,*4A
1491321906.39,18163,15.31,73936.5,0.29,-1.17,-1.17,0,*4B
1491321907.65,18164,15.31,73938.0,0.29,-1.09,-1.05,0,*40
1491321908.9,18165,15.31,73938.8,0.29,-1.09,-1.09,0,*4D
1491321910.15,18166,15.31,73936.3,0.29,-0.97,-0.97,0,*4E
1491321911.4,18167,15.31,73938.0,0.29,-1.05,-0.97,0,*75
1491321912.65,18168,15.31,73936.5,0.29,-1.05,-0.85,0,*79
1491321913.88,18169,15.31,73942.3,0.29,-0.85,-0.73,0,*48
1491321915.11,18170,15.31,73942.3,0.29,-0.85,-0.73,0,*40
1491321916.31,18171,15.31,73942.0,0.29,-0.73,-0.61,0,*4B
1491321917.51,18172,15.31,73940.8,0.29,-0.69,-0.69,0,*4B
1491321918.7,18173,15.31,73940.5,0.29,-0.61,-0.49,0,*40
1491321919.9,18174,15.31,73942.0,0.29,-0.69,-0.57,0,*40
1491321921.1,18175,15.31,73942.3,0.29,-0.57,-0.57,0,*4C
1491321922.3,18176,15.31,73932.8,0.29,-0.69,-0.57,0,*42
1491321923.5,18177,15.31,73926.0,0.29,-0.61,-0.57,0,*4B
1491321924.69,18178,15.31,73930.8,0.29,-0.61,-0.57,0,*44
1491321925.89,18179,15.31,73934.8,0.29,-0.69,-0.69,0,*40
1491321927.08,18180,15.31,73934.0,0.29,-0.69,-0.61,0,*4E
1491321928.29,18181,15.31,73928.8,0.29,-0.81,-0.69,0,*41
1491321929.49,18182,15.31,73936.8,0.29,-0.81,-0.61,0,*4A
1491321930.69,18183,15.31,73936.3,0.29,-0.73,-0.69,0,*4E
1491321931.89,18184,15.31,73940.3,0.29,-0.81,-0.69,0,*44
1491321933.1,18185,15.31,73942.0,0.29,-0.81,-0.73,0,*4E
1491321934.32,18186,15.31,73942.3,0.29,-0.97,-0.81,0,*47
1491321935.55,18187,15.31,73936.3,0.29,-0.93,-0.73,0,*4F
1491321936.75,18188,15.31,73934.5,0.29,-0.73,-0.69,0,*45
1491321937.95,18189,15.31,73936.8,0.29,-0.73,-0.57,0,*49
1491321939.13,18190,15.31,73938.5,0.31,-0.69,-0.57,0,*43
1491321940.33,18191,15.31,73938.8,0.29,-0.69,-0.57,0,*4B
1491321941.53,18192,15.31,73924.5,0.29,-0.69,-0.57,0,*48
1491321942.73,18193,15.31,73912.8,0.29,-0.69,-0.57,0,*49
1491321943.93,18194,15.31,73914.3,0.29,-0.73,-0.69,0,*48
1491321945.14,18195,15.31,73926.3,0.29,-0.81,-0.73,0,*4F
1491321946.34,18196,15.31,73938.8,0.29,-0.81,-0.73,0,*4C
1491321947.55,18197,15.31,73924.0,0.29,-0.81,-0.81,0,*40
1491321948.75,18198,15.31,73924.3,0.29,-0.73,-0.73,0,*4F
1491321949.95,18199,15.31,73936.5,0.29,-0.69,-0.61,0,*46
1491321951.17,18200,15.31,73936.8,0.29,-0.93,-0.81,0,*4E
1491321952.42,18201,15.31,73944.0,0.29,-1.05,-0.93,0,*72
1491321953.62,18202,15.31,73946.3,0.31,-0.97,-0.81,0,*41
1491321954.84,18203,15.31,73942.0,0.29,-0.93,-0.81,0,*4D
1491321956.1,18204,15.31,73936.0,0.29,-1.05,-0.93,0,*77
1491321957.35,18205,15.31,73936.5,0.29,-1.05,-0.97,0,*72
1491321958.59,18206,15.31,73938.5,0.31,-1.05,-1.01,0,*46
1491321959.82,18207,15.31,73934.3,0.27,-1.09,-1.05,0,*48
1491321961.05,18208,15.31,73932.0,0.27,-1.05,-0.97,0,*71
1491321962.28,18209,15.31,73936.5,0.27,-1.09,-1.09,0,*4A
1491321963.51,18210,15.31,73940.3,0.27,-1.09,-1.05,0,*4E
1491321964.74,18211,15.31,73940.5,0.27,-0.97,-0.93,0,*47
1491321965.97,18212,15.31,73940.3,0.27,-1.05,-0.97,0,*7A
1491321967.19,18213,15.31,73940.3,0.27,-0.93,-0.97,0,*45
1491321968.41,18214,15.31,73938.0,0.27,-0.85,-0.85,0,*46
1491321969.59,18215,15.31,73942.3,0.23,-0.77,-0.77,0,*43
1491321970.77,18216,15.31,73946.5,0.27,-0.81,-0.73,0,*49
1491321971.94,18217,15.31,73948.0,0.27,-0.69,-0.69,0,*45
1491321973.12,18218,15.31,73944.3,0.23,-0.77,-0.65,0,*4D
1491321974.29,18219,15.31,73948.8,0.27,-0.57,-0.61,0,*4E
1491321975.46,18220,15.31,73954.5,0.23,-0.65,-0.61,0,*41
1491321976.64,18221,15.31,73944.5,0.27,-0.49,-0.49,0,*40
1491321977.81,18222,15.31,73940.5,0.27,-0.49,-0.53,0,*48
1491321978.99,18223,15.31,73938.0,0.27,-0.49,-0.49,0,*42
1491321980.16,18224,15.31,73934.3,0.23,-0.49,-0.49,0,*41
1491321981.34,18225,15.31,73936.0,0.27,-0.53,-0.53,0,*44
1491321982.52,18226,15.31,73958.0,0.27,-0.49,-0.49,0,*47
1491321983.69,18227,15.31,73948.5,0.27,-0.49,-0.49,0,*46
1491321984.87,18228,15.31,73944.3,0.27,-0.49,-0.49,0,*49
1491321986.05,18229,15.31,73950.8,0.27,-0.49,-0.49,0,*48
1491321987.22,18230,15.31,73954.8,0.27,-0.49,-0.49,0,*40
1491321988.4,18231,15.31,73954.5,0.27,-0.57,-0.49,0,*4E
1491321989.58,18232,15.31,73950.8,0.27,-0.49,-0.49,0,*42
1491321990.75,18233,15.31,73952.8,0.27,-0.49,-0.49,0,*43
1491321991.94,18234,15.31,73950.0,0.27,-0.57,-0.49,0,*4B
1491321993.11,18235,15.31,73948.8,0.27,-0.49,-0.57,0,*4A
1491321994.27,18236,15.31,73948.0,0.27,-0.61,-0.61,0,*46
1491321995.45,18237,15.31,73950.5,0.27,-0.49,-0.49,0,*47
1491321996.62,18238,15.31,73952.8,0.27,-0.49,-0.57,0,*47
1491321997.8,18239,15.31,73952.3,0.27,-0.49,-0.49,0,*49
1491321998.98,18240,15.31,73950.8,0.27,-0.49,-0.49,0,*47
1491322000.15,18241,15.31,73950.0,0.27,-0.49,-0.49,0,*46
1491322001.35,18242,15.31,73946.8,0.29,-0.49,-0.49,0,*4B
1491322002.53,18243,15.31,73946.3,0.31,-0.45,-0.45,0,*43
1491322003.71,18244,15.31,73944.5,0.31,-0.41,-0.41,0,*44
1491322004.91,18245,15.31,73942.5,0.29,-0.45,-0.45,0,*4C
1491322006.11,18246,15.31,73944.5,0.29,-0.45,-0.41,0,*4B
1491322007.31,18247,15.31,73952.8,0.29,-0.45,-0.45,0,*4E
1491322008.51,18248,15.31,73954.0,0.29,-0.45,-0.45,0,*41
1491322009.72,18249,15.31,73952.8,0.29,-0.45,-0.41,0,*44
1491322010.9,18250,15.31,73954.0,0.31,-0.41,-0.41,0,*41
1491322012.07,18251,15.31,73948.0,0.27,-0.49,-0.45,0,*4B
1491322013.25,18252,15.31,73946.3,0.27,-0.45,-0.45,0,*44
1491322014.43,18253,15.31,73944.8,0.27,-0.45,-0.45,0,*45
1491322015.62,18254,15.31,73942.8,0.29,-0.45,-0.45,0,*4C
1491322016.82,18255,15.31,73936.3,0.29,-0.45,-0.45,0,*4D
1491322018.02,18256,15.31,73938.8,0.29,-0.45,-0.45,0,*4E
1491322019.21,18257,15.31,73928.0,0.31,-0.41,-0.41,0,*46
1491322020.38,18258,15.31,73930.0,0.31,-0.53,-0.53,0,*49
1491322021.58,18259,15.31,73924.3,0.29,-0.49,-0.49,0,*41
1491322022.78,18260,15.31,73930.5,0.29,-0.45,-0.49,0,*47
1491322023.98,18261,15.31,73928.5,0.29,-0.41,-0.45,0,*4E
1491322025.19,18262,15.31,73938.8,0.29,-0.41,-0.41,0,*49
1491322026.4,18263,15.31,73938.3,0.29,-0.41,-0.41,0,*48
1491322027.6,18264,15.31,73942.3,0.29,-0.45,-0.45,0,*4F
1491322028.8,18265,15.31,73942.3,0.29,-0.45,-0.45,0,*4E
1491322030.0,18266,15.31,73950.8,0.29,-0.41,-0.45,0,*49
1491322031.2,18267,15.31,73946.8,0.29,-0.45,-0.45,0,*4C
1491322032.39,18268,15.31,73948.8,0.31,-0.41,-0.41,0,*4A
1491322033.57,18269,15.31,73946.0,0.31,-0.45,-0.41,0,*4F
1491322034.74,18270,15.31,73940.5,0.31,-0.45,-0.53,0,*44
1491322035.92,18271,15.31,73942.0,0.31,-0.41,-0.45,0,*46
1491322037.1,18272,15.31,73944.8,0.31,-0.37,-0.41,0,*40
1491322038.27,18273,15.31,73940.3,0.31,-0.37,-0.37,0,*40
1491322039.48,18274,15.31,73942.0,0.29,-0.41,-0.41,0,*4E
1491322040.69,18275,15.31,73942.0,0.29,-0.41,-0.41,0,*4F
1491322041.88,18276,15.31,73946.8,0.31,-0.41,-0.41,0,*45
1491322043.05,18277,15.31,73944.0,0.31,-0.41,-0.45,0,*40
1491322044.26,18278,15.31,73944.8,0.33,-0.41,-0.37,0,*48
1491322045.45,18279,15.31,73944.3,0.33,-0.37,-0.29,0,*47
1491322046.66,18280,15.31,73936.0,0.33,-0.41,-0.41,0,*4E
1491322047.86,18281,15.31,73936.5,0.33,-0.37,-0.37,0,*4F
1491322049.03,18282,15.31,73946.8,0.31,-0.37,-0.37,0,*4E
1491322050.21,18283,15.31,73950.5,0.31,-0.41,-0.37,0,*4E
1491322051.4,18284,15.31,73950.3,0.31,-0.41,-0.41,0,*48
1491322052.58,18285,15.25,73948.3,0.31,-0.41,-0.37,0,*48
1491322053.76,18286,15.31,73946.5,0.31,-0.41,-0.37,0,*4B
1491322054.97,18287,15.31,73942.5,0.33,-0.41,-0.41,0,*49
1491322056.17,18288,15.31,73942.5,0.33,-0.37,-0.37,0,*46
1491322057.37,18289,15.31,73952.3,0.33,-0.37,-0.41,0,*46
1491322058.54,18290,15.31,73954.3,0.31,-0.37,-0.29,0,*42
1491322059.71,18291,15.31,73946.0,0.31,-0.37,-0.29,0,*43
1491322060.88,18292,15.31,73944.0,0.35,-0.33,-0.33,0,*4B
1491322062.06,18293,15.31,73946.0,0.35,-0.33,-0.33,0,*4A
1491322063.24,18294,15.31,73946.8,0.35,-0.37,-0.37,0,*4D
1491322064.42,18295,15.31,73944.5,0.35,-0.37,-0.37,0,*4C
1491322065.62,18296,15.31,73940.3,0.33,-0.41,-0.41,0,*49
1491322066.81,18297,15.31,73940.8,0.35,-0.41,-0.41,0,*4E
1491322068.01,18298,15.31,73938.0,0.33,-0.37,-0.41,0,*46
1491322069.22,18299,15.31,73940.0,0.33,-0.41,-0.41,0,*46
1491322070.4,18300,15.31,73938.8,0.35,-0.37,-0.37,0,*41
1491322071.58,18301,15.31,73938.5,0.35,-0.37,-0.41,0,*41
1491322072.76,18302,15.31,73936.0,0.35,-0.37,-0.41,0,*42
1491322073.96,18303,15.31,73932.3,0.33,-0.57,-0.53,0,*40
1491322075.15,18304,15.31,73934.3,0.33,-0.65,-0.65,0,*43
1491322076.35,18305,15.31,73936.3,0.33,-0.53,-0.53,0,*42
1491322077.55,18306,15.31,73934.8,0.33,-0.45,-0.45,0,*41
1491322078.74,18307,15.25,73930.0,0.33,-0.57,-0.45,0,*43
1491322079.94,18308,15.31,73934.8,0.33,-0.45,-0.53,0,*48
1491322081.13,18309,15.31,73932.8,0.33,-0.53,-0.53,0,*4E
1491322082.33,18310,15.31,73938.5,0.33,-0.53,-0.53,0,*46
1491322083.53,18311,15.25,73940.3,0.33,-0.53,-0.45,0,*40
1491322084.72,18312,15.31,73942.3,0.33,-0.45,-0.45,0,*44
1491322085.92,18313,15.31,73944.8,0.33,-0.45,-0.45,0,*45
1491322087.12,18314,15.31,73946.0,0.33,-0.45,-0.41,0,*46
1491322088.29,18315,15.31,73946.3,0.35,-0.33,-0.33,0,*45
1491322089.47,18316,15.31,73940.5,0.35,-0.33,-0.33,0,*46
1491322090.67,18317,15.31,73944.5,0.33,-0.37,-0.37,0,*41
1491322091.88,18318,15.25,73938.8,0.33,-0.41,-0.41,0,*4E
1491322093.06,18319,15.31,73938.8,0.35,-0.37,-0.37,0,*49
1491322094.26,18320,15.31,73946.0,0.33,-0.37,-0.41,0,*44
1491322095.46,18321,15.31,73944.0,0.33,-0.41,-0.37,0,*45
1491322096.64,18322,15.31,73948.3,0.35,-0.33,-0.37,0,*45
1491322097.84,18323,15.31,73942.5,0.33,-0.41,-0.41,0,*46
1491322099.04,18324,15.31,73940.0,0.33,-0.53,-0.53,0,*41
1491322100.23,18325,15.31,73944.0,0.35,-0.41,-0.41,0,*46
1491322101.42,18326,15.31,73942.8,0.33,-0.45,-0.45,0,*43
1491322102.61,18327,15.25,73944.5,0.35,-0.41,-0.41,0,*44
1491322103.8,18328,15.31,73946.3,0.33,-0.53,-0.45,0,*4A